Terminal Aerodrome Forecast
Issued by NWS Charleston, WV

Current Version | Previous Version | Text Only | Print | Product List | Glossary Off
Versions: 1 2 3 4 5 6 7 8 9 10 11 12 13 14 15 16 17 18 19 20 21 22 23 24 25 26 27 28 29

000
FTUS41 KRLX 052337
TAFBKW
TAF
KBKW 052337Z 0600/0624 11007KT 2SM -TSRA BR SCT022CB OVC035
     FM060015 11007KT 4SM -TSRA BR SCT025 OVC040CB
      TEMPO 0601/0602 2SM TSRA OVC022CB
     FM060400 VRB03KT 3SM BR OVC015
     FM060600 00000KT 2SM BR OVC006
     FM061400 24004KT 3SM SHRA BR BKN008
     FM061600 26004KT P6SM SHRA VCTS BKN014CB
     FM061900 27004KT P6SM TSRA BKN022CB
     FM062000 28005KT P6SM VCTS BKN035CB
     FM062200 26004KT P6SM BKN045
     FM062300 VRB03KT P6SM BKN150=

USA.gov is the U.S. government's official web portal to all federal, state and local government web resources and services.